Regional Weather Roundup
Issued by NWS

Home | Current Version | Previous Version | Graphics & Text | Print | Product List | Glossary On
Versions: 1 2 3 4 5 6 7 8 9 10 11 12 13 14 15 16 17 18 19 20 21 22 23 24 25 26 27 28 29 30 31 32 33 34 35 36 37 38 39 40 41 42 43 44 45 46 47 48 49 50
000
ASUS44 KMEG 010110
RWRTN
TENNESSEE HOURLY STATE WEATHER ROUNDUP
NATIONAL WEATHER SERVICE MEMPHIS TN
800 PM CDT FRI OCT 31 2014

TNZ002-004-019-021-049-052-054-088>092-010200-
WEST TENNESSEE

CITY           SKY/WX    TMP DP  RH WIND       PRES   REMARKS
MEMPHIS INTL   CLEAR     46  23  40 N12       30.29R
NWS MEMPHIS      N/A     44 N/A N/A MISG        N/A
JACKSON        CLEAR     42  24  49 N12       30.27R
DYERSBURG      CLEAR     43  18  36 N12G17    30.31R
UNION CITY     CLEAR     39  23  52 N12       30.27R WCI  32
PARIS          CLEAR     37  21  52 NW8       30.24R WCI  31
HUNTINGDON     CLEAR     39  20  47 VRB7      30.25R WCI  34
LEXINGTON      CLEAR     39  23  52 NW7       30.22R WCI  34
SAVANNAH       CLEAR     41  25  52 N8        30.23R
$$

TNZ008-025-027-028-033-062-065-066-010200-
NORTH MIDDLE TENNESSEE

CITY           SKY/WX    TMP DP  RH WIND       PRES   REMARKS
NASHVILLE      MOCLDY    42  27  55 NW14G24   30.15R
DICKSON        FAIR      37  23  56 NW10      30.17R WCI  30
PORTLAND       CLOUDY    37  28  70 N22       30.12R WCI  27
CLARKSVILLE    CLOUDY    42  26  53 NW17      30.18R
LEBANON        CLOUDY    40  27  60 NW17      30.10S WCI  31
SMYRNA         CLOUDY    42  28  58 NW16G25   30.15S
COOKEVILLE     PTCLDY    37  30  75 N13       30.07R WCI  29
LIVINGSTON     CLOUDY    35  30  82 NW12      30.05R WCI  27
GALLATIN       CLOUDY    41  28  60 NW13      30.13R
CROSSVILLE     CLOUDY    36  29  75 NW15G23   30.01S WCI  27
ROCKWOOD       CLOUDY    33  32  96 N13       29.97S WCI  24
$$

TNZ061-075-076-078-094-096-097-010200-
SOUTH MIDDLE TENNESSEE

CITY           SKY/WX    TMP DP  RH WIND       PRES   REMARKS
FAYETTEVILLE   CLEAR     37  23  56 N17G30    30.12R WCI  28
TULLAHOMA      CLOUDY    37  27  65 N13       30.11R WCI  29
WINCHESTER     MOCLDY    37  28  70 NW14      30.10S WCI  29
MCMINNVILLE    CLOUDY    37  30  75 NW13      30.08S WCI  29
COLUMBIA       PTCLDY    39  27  60 NW8       30.16R WCI  34
SHELBYVILLE    MOCLDY    39  28  65 NW12      30.14R WCI  32
$$

TNZ017-018-042-046-047-010200-
NORTHEAST TENNESSEE

CITY           SKY/WX    TMP DP  RH WIND       PRES   REMARKS
TRI CITIES     LGT RAIN  44  42  93 SW5       29.86S
ELIZABETHTON   LGT RAIN  43  39  87 VRB6      29.85F
$$

TNZ012-013-036-069-073-074-010200-
CENTRAL EAST TENNESSEE

CITY           SKY/WX    TMP DP  RH WIND       PRES   REMARKS
KNOXVILLE      LGT RAIN  42  34  73 NW10      29.98R
OAK RIDGE      CLOUDY    41  33  73 VRB5G21   30.02R
GATLINBURG     CLOUDY    39  36  87 W5        29.97R
MORRISTOWN     MOCLDY    39  36  87 N14       29.93R WCI  31
$$

TNZ083-085-099-010200-
SOUTHEAST TENNESSEE

CITY           SKY/WX    TMP DP  RH WIND       PRES   REMARKS
CHATTANOOGA    MOCLDY    42  29  59 NW20G26   30.06S
$$

SKY/WX REPORTED AS FAIR MEANS FEW OR NO CLOUDS BELOW
12 THOUSAND FEET.




USA.gov is the U.S. government's official web portal to all federal, state and local government web resources and services.